Weather History for KLOM - May, 2013

Change the Weather History Date:

Thursday, May 16, 2013

  Actual Average (KPNE) Record (KPNE)
Temperature  
Mean Temperature 68 °F -  
Max Temperature 82 °F 69 °F 88 °F (1998)
Min Temperature 55 °F 49 °F 44 °F (1999)
Cooling Degree Days 4    
Growing Degree Days 18 (Base 50)    
Moisture  
Dew Point 59 °F    
Average Humidity 77    
Maximum Humidity 100    
Minimum Humidity 48    
Precipitation  
Precipitation 0.04 in - - ()
Sea Level Pressure  
Sea Level Pressure 29.78 in    
Wind  
Wind Speed 2 mph (WSW)    
Max Wind Speed 10 mph    
Max Gust Speed 16 mph    
Visibility 8 miles    
Events      
Averages and records for this station are not official NWS values.
T = Trace of Precipitation, MM = Missing Value Source: NWS Daily Summary

Daily Weather History Graph

Daily Weather History Graph

Search for Another Location

Airport or City:

Trip Planner

Search our weather history database for the weather conditions in past years. The results will help you decide how hot, cold, wet, or windy it might be!

Date:

Astronomy

May. 16, 2013 Rise Set
Actual Time 5:44 AM EDT 8:11 PM EDT
Civil Twilight 5:13 AM EDT 8:41 PM EDT
Nautical Twilight 4:35 AM EDT 9:20 PM EDT
Astronomical Twilight 3:52 AM EDT 10:03 PM EDT
Moon 11:15 AM EDT (5/16) 12:30 AM EDT (5/16)
Length of Visible Light 15h 28m
Length of Day
14h 26m
Waxing Crescent, 35% of the Moon is Illuminated
May 16
Waxing Crescent
May 18
First Quarter
May 25
Full
May 31
Last Quarter
Jun 8
New

Hourly Weather History & Observations

Time (EDT) Temp. Heat Index Dew Point Humidity Pressure Visibility Wind Dir Wind Speed Gust Speed Precip Events Conditions
12:15 AM 62.6 °F - 59.0 °F 88% 29.73 in 10.0 mi Calm Calm - N/A   Clear
12:35 AM 64.4 °F - 59.0 °F 83% 29.73 in 10.0 mi Calm Calm - N/A   Clear
12:55 AM 64.4 °F - 57.2 °F 77% 29.74 in 10.0 mi Calm Calm - N/A   Clear
1:15 AM 60.8 °F - 55.4 °F 82% 29.73 in 10.0 mi Calm Calm - N/A   Clear
1:35 AM 59.0 °F - 55.4 °F 88% 29.73 in 10.0 mi Calm Calm - N/A   Clear
1:55 AM 59.0 °F - 57.2 °F 94% 29.73 in 10.0 mi Calm Calm - N/A   Clear
2:15 AM 59.0 °F - 55.4 °F 88% 29.73 in 10.0 mi Calm Calm - N/A   Clear
2:35 AM 59.0 °F - 55.4 °F 88% 29.73 in 10.0 mi Calm Calm - N/A   Clear
2:55 AM 59.0 °F - 55.4 °F 88% 29.73 in 7.0 mi Calm Calm - N/A   Clear
3:15 AM 59.0 °F - 55.4 °F 88% 29.73 in 5.0 mi Calm Calm - N/A   Clear
3:35 AM 57.2 °F - 55.4 °F 94% 29.73 in 5.0 mi Calm Calm - N/A   Clear
3:55 AM 57.2 °F - 55.4 °F 94% 29.73 in 5.0 mi Calm Calm - N/A   Clear
4:15 AM 57.2 °F - 55.4 °F 94% 29.73 in 5.0 mi Calm Calm - N/A   Clear
4:35 AM 57.2 °F - 55.4 °F 94% 29.73 in 4.0 mi Calm Calm - N/A   Clear
4:55 AM 55.4 °F - 55.4 °F 100% 29.73 in 3.0 mi Calm Calm - N/A   Unknown
5:15 AM 55.4 °F - 53.6 °F 94% 29.74 in 2.0 mi Calm Calm - N/A   Unknown
5:35 AM 55.4 °F - 53.6 °F 94% 29.74 in 2.0 mi Calm Calm - N/A   Unknown
5:55 AM 55.4 °F - 53.6 °F 94% 29.75 in 2.5 mi Calm Calm - N/A   Unknown
6:15 AM 55.4 °F - 53.6 °F 94% 29.77 in 2.0 mi Calm Calm - N/A   Unknown
6:35 AM 55.4 °F - 53.6 °F 94% 29.78 in 2.0 mi Calm Calm - N/A   Unknown
6:55 AM 59.0 °F - 55.4 °F 88% 29.79 in 2.5 mi Calm Calm - N/A   Unknown
7:15 AM 59.0 °F - 57.2 °F 94% 29.79 in 4.0 mi Calm Calm - N/A   Scattered Clouds
7:35 AM 60.8 °F - 59.0 °F 94% 29.80 in 3.0 mi Calm Calm - N/A   Unknown
7:55 AM 62.6 °F - 60.8 °F 94% 29.81 in 5.0 mi Calm Calm - N/A   Scattered Clouds
8:15 AM 64.4 °F - 59.0 °F 83% 29.85 in 7.0 mi West 6.9 mph - N/A   Mostly Cloudy
8:35 AM 62.6 °F - 59.0 °F 88% 29.85 in 4.0 mi WNW 3.5 mph - 0.02 in   Overcast
8:55 AM 62.6 °F - 59.0 °F 88% 29.82 in 4.0 mi Calm Calm - 0.03 in   Mostly Cloudy
9:15 AM 62.6 °F - 60.8 °F 94% 29.82 in 4.0 mi Calm Calm - 0.01 in   Mostly Cloudy
9:35 AM 62.6 °F - 60.8 °F 94% 29.83 in 5.0 mi Calm Calm - 0.01 in   Scattered Clouds
9:55 AM 64.4 °F - 60.8 °F 88% 29.80 in 7.0 mi Calm Calm - 0.01 in   Scattered Clouds
10:15 AM 64.4 °F - 60.8 °F 88% 29.81 in 5.0 mi South 3.5 mph - N/A   Clear
10:35 AM 68.0 °F - 60.8 °F 78% 29.82 in 7.0 mi South 3.5 mph - N/A   Clear
10:55 AM 69.8 °F - 60.8 °F 73% 29.81 in 10.0 mi Calm Calm - N/A   Clear
11:15 AM 69.8 °F - 60.8 °F 73% 29.82 in 10.0 mi SSW 3.5 mph - N/A   Clear
11:35 AM 73.4 °F - 62.6 °F 69% 29.82 in 10.0 mi SW 5.8 mph - N/A   Clear
11:55 AM 75.2 °F - 60.8 °F 61% 29.81 in 10.0 mi SW 8.1 mph - N/A   Scattered Clouds
12:15 PM 75.2 °F - 60.8 °F 61% 29.81 in 10.0 mi SW 9.2 mph - N/A   Scattered Clouds
12:35 PM 77.0 °F - 62.6 °F 61% 29.80 in 10.0 mi West 6.9 mph - N/A   Scattered Clouds
12:55 PM 77.0 °F - 62.6 °F 61% 29.79 in 10.0 mi West 5.8 mph - N/A   Scattered Clouds
1:15 PM 77.0 °F - 62.6 °F 61% 29.80 in 10.0 mi WSW 5.8 mph - N/A   Scattered Clouds
1:35 PM 77.0 °F - 62.6 °F 61% 29.80 in 10.0 mi WSW 10.4 mph - N/A   Mostly Cloudy
1:55 PM 78.8 °F - 62.6 °F 57% 29.79 in 10.0 mi SW 8.1 mph - N/A   Scattered Clouds
2:15 PM 78.8 °F - 62.6 °F 57% 29.79 in 10.0 mi West 8.1 mph - N/A   Scattered Clouds
2:35 PM 78.8 °F - 62.6 °F 57% 29.78 in 10.0 mi SW 4.6 mph - N/A   Scattered Clouds
3:15 PM 80.6 °F 81.8 °F 62.6 °F 54% 29.77 in 10.0 mi WNW 4.6 mph - N/A   Clear
3:35 PM 80.6 °F 81.8 °F 62.6 °F 54% 29.76 in 10.0 mi West 8.1 mph - N/A   Clear
3:55 PM 80.6 °F 81.5 °F 60.8 °F 51% 29.76 in 10.0 mi West 5.8 mph 16.1 mph N/A   Clear
4:15 PM 82.4 °F 83.4 °F 62.6 °F 51% 29.76 in 10.0 mi WSW 9.2 mph - N/A   Clear
4:35 PM 80.6 °F 81.5 °F 60.8 °F 51% 29.75 in 10.0 mi SW 9.2 mph - N/A   Clear
4:55 PM 80.6 °F 81.5 °F 60.8 °F 51% 29.75 in 10.0 mi WSW 10.4 mph 16.1 mph N/A   Clear
5:15 PM 82.4 °F 82.9 °F 60.8 °F 48% 29.75 in 10.0 mi WSW 8.1 mph - N/A   Scattered Clouds
5:35 PM 80.6 °F 81.1 °F 59.0 °F 48% 29.75 in 10.0 mi West 6.9 mph - N/A   Clear
7:55 PM 77.0 °F - 59.0 °F 54% 29.78 in 10.0 mi Calm Calm - N/A   Clear
8:15 PM 71.6 °F - 60.8 °F 69% 29.79 in 10.0 mi Calm Calm - N/A   Clear
8:35 PM 69.8 °F - 60.8 °F 73% 29.79 in 10.0 mi Calm Calm - N/A   Clear
8:55 PM 68.0 °F - 60.8 °F 78% 29.80 in 10.0 mi Calm Calm - N/A   Clear
9:15 PM 68.0 °F - 60.8 °F 78% 29.81 in 10.0 mi Calm Calm - N/A   Clear
9:35 PM 66.2 °F - 59.0 °F 78% 29.82 in 10.0 mi Calm Calm - N/A   Clear
9:55 PM 64.4 °F - 59.0 °F 83% 29.83 in 10.0 mi Calm Calm - N/A   Clear
10:15 PM 68.0 °F - 55.4 °F 64% 29.83 in 10.0 mi Calm Calm - N/A   Clear
10:35 PM 64.4 °F - 55.4 °F 73% 29.84 in 10.0 mi Calm Calm - N/A   Clear
10:55 PM 64.4 °F - 55.4 °F 73% 29.84 in 10.0 mi Calm Calm - N/A   Clear
11:15 PM 64.4 °F - 53.6 °F 68% 29.85 in 10.0 mi Calm Calm - N/A   Clear
11:35 PM 62.6 °F - 55.4 °F 77% 29.86 in 10.0 mi Calm Calm - N/A   Clear
11:55 PM 60.8 °F - 55.4 °F 82% 29.86 in 10.0 mi Calm Calm - N/A   Clear